Location: *
(33.8649°S, 62.1526°E)
Time: 03:46:17
(UTC+00:00)

Cosmos 1408 - Pass Details

Date: 17 January 2021
Orbit: 469 x 492 km, 82.6° (Epoch: 27 February)

Event Time Altitude Azimuth Distance (km) Brightness Sun altitude
Rises 16:17:44 0° 195° (SSW) 2,607 7.2 -13.8°
Reaches altitude 10° 16:19:57 10° 202° (SSW) 1,713 6.3 -14.2°
Maximum altitude 16:23:28 40° 272° (W) 743 3.9 -14.8°
Drops below altitude 10° 16:26:56 10° 343° (NNW) 1,678 5.1 -15.3°
Enters shadow 16:27:41 - 346° (NNW) 1,973 5.4 -15.4°
